Regional Weather Roundup
Issued by NWS

Home | Current Version | Previous Version | Graphics & Text | Print | Product List | Glossary On
Versions: 1 2 3 4 5 6 7 8 9 10 11 12 13 14 15 16 17 18 19 20 21 22 23 24 25 26 27
000
ASUS45 KCYS 050210
RWRWY

WYOMING REGIONAL WEATHER ROUNDUP
NATIONAL WEATHER SERVICE CHEYENNE WY
700 PM MST SUN DEC 04 2016

NOTE:  "FAIR" INDICATES FEW OR NO CLOUDS BELOW 12,000 FEET
WITH NO SIGNIFICANT WEATHER AND/OR OBSTRUCTIONS TO VISIBILITY.

WYZ001-050300-
YELLOWSTONE NATIONAL PARK

CITY           SKY/WX    TMP DP  RH WIND       PRES   REMARKS
LK YELLOWSTONE   N/A     25  22  88 W10G20    29.58F WCI  15
W YELLOWSTONE  NOT AVBL

$$
WYZ002>013-054>058-071-098>099-050300-
NORTHERN WYOMING

CITY           SKY/WX    TMP DP  RH WIND       PRES   REMARKS
JACKSON        CLOUDY    28  28 100 S20G30    29.65F WCI  15
CODY           MOCLDY    34  26  72 SE7       29.55  WCI  28
GREYBULL       FAIR      31  19  61 CALM      29.55F
WORLAND        FAIR      27  21  78 CALM      29.55F
SHERIDAN       FAIR      32  22  66 SW6       29.53F WCI  26
BUFFALO        FAIR      34  17  50 W9        29.53F WCI  27
GILLETTE       MOCLDY    38  22  52 SW13      29.55F WCI  30
HULETT         MOCLDY    34  21  60 CALM      29.57F
NEWCASTLE      FAIR      36  19  51 SE10      29.62F WCI  28

$$
WYZ014>020-022>026-101>103-050300-
CENTRAL WYOMING

CITY           SKY/WX    TMP DP  RH WIND       PRES   REMARKS
BIG PINEY      CLOUDY    29  22  75 W9        29.74F WCI  20
PINEDALE       MOCLDY    28  21  74 MISG      29.74F
DUBOIS         LGT SNOW  30  21  69 W24G33    29.56F WCI  16
LANDER         FAIR      36  23  59 SW24G44   29.58F WCI  24
RIVERTON       FAIR      37  21  52 SW24G32   29.61F WCI  26
CASPER         FAIR      36  18  48 SW22G29   29.64F WCI  25
DOUGLAS        FAIR      41  18  39 W32G45    29.60F

$$
WYZ021-027>030-104>119-050300-
SOUTHERN WYOMING

CITY           SKY/WX    TMP DP  RH WIND       PRES   REMARKS
EVANSTON       MOCLDY    31  25  78 SW16G26   29.84F WCI  20
KEMMERER         N/A     32  23  69 SW23G33   29.80F WCI  19
FORT BRIDGER   FAIR      35  24  63 SW23G32   29.85F WCI  23
ROCK SPRINGS   CLOUDY    35  19  52 SW22      29.81F WCI  23
DIXON          CLOUDY    35  16  45 S23       29.88F WCI  24
RAWLINS        CLOUDY    34  17  50 SW23G31   29.80R WCI  22
SARATOGA       CLOUDY    32  19  59 E13G18    29.83F WCI  22
LARAMIE        CLOUDY    34  14  43 S9        29.79S WCI  27
CHEYENNE       FAIR      40  14  34 W23G35    29.73R WCI  30
TORRINGTON     FAIR      44  18  35 N12       29.66F
PINE BLUFFS    FAIR      37  18  44 SW3       29.74F

$$




USA.gov is the U.S. government's official web portal to all federal, state and local government web resources and services.